Beaufort, NC

2:58 PM EDT on July 28, 2017 (GMT -0400)
Smith

Weather History for KMRH - November, 2012

Change the Weather History Date:

Friday, November 9, 2012

  Actual Average Record
Temperature  
Mean Temperature 48 °F -  
Max Temperature 60 °F 68 °F 81 °F (1977)
Min Temperature 37 °F 46 °F 19 °F (1976)
Degree Days  
Heating Degree Days 16    
Moisture  
Dew Point 33 °F    
Average Humidity 63    
Maximum Humidity 93    
Minimum Humidity 35    
Precipitation  
Precipitation 0.00 in - - ()
Sea Level Pressure  
Sea Level Pressure 30.21 in    
Wind  
Wind Speed 6 mph (NNW)    
Max Wind Speed 13 mph    
Max Gust Speed -    
Visibility 10 miles    
Events      
Averages and records for this station are not official NWS values.
T = Trace of Precipitation, MM = Missing Value Source: NWS Daily Summary

Daily Weather History Graph

Daily Weather History Graph

Search for Another Location

Airport or City:

Trip Planner

Search our weather history database for the weather conditions in past years. The results will help you decide how hot, cold, wet, or windy it might be!

Date:

Astronomy

Nov. 09, 2012 Rise Set
Actual Time 6:35 AM EST 5:05 PM EST
Civil Twilight 6:08 AM EST 5:31 PM EST
Nautical Twilight 5:38 AM EST 6:02 PM EST
Astronomical Twilight 5:08 AM EST 6:31 PM EST
Moon 1:42 AM EST (11/9) 2:07 PM EST (11/9)
Length of Visible Light 11h 23m
Length of Day
10h 30m
Waning Crescent, 23% of the Moon is Illuminated
Nov 9
Waning Crescent
Nov 13
New
Nov 20
First Quarter
Nov 28
Full
Dec 6
Last Quarter

Hourly Weather History & Observations

Time (EST) Temp. Windchill Dew Point Humidity Pressure Visibility Wind Dir Wind Speed Gust Speed Precip Events Conditions
12:56 AM 43.0 °F 38.2 °F 32.0 °F 65% 30.09 in 10.0 mi NNW 8.1 mph - N/A   Clear
1:56 AM 42.1 °F 37.1 °F 28.9 °F 60% 30.09 in 10.0 mi North 8.1 mph - N/A   Clear
2:56 AM 43.0 °F 38.2 °F 28.0 °F 56% 30.11 in 10.0 mi North 8.1 mph - N/A   Clear
3:56 AM 41.0 °F 35.8 °F 28.9 °F 62% 30.12 in 10.0 mi North 8.1 mph - N/A   Clear
4:56 AM 39.9 °F 34.5 °F 28.9 °F 65% 30.15 in 10.0 mi North 8.1 mph - N/A   Clear
5:56 AM 37.9 °F 33.5 °F 30.0 °F 73% 30.17 in 10.0 mi North 5.8 mph - N/A   Clear
6:56 AM 37.0 °F 33.3 °F 30.0 °F 76% 30.20 in 10.0 mi North 4.6 mph - N/A   Clear
7:56 AM 43.0 °F 38.2 °F 30.9 °F 62% 30.22 in 10.0 mi NNW 8.1 mph - N/A   Clear
8:56 AM 48.0 °F - 30.9 °F 52% 30.22 in 10.0 mi North 9.2 mph - N/A   Clear
9:56 AM 52.0 °F - 30.0 °F 43% 30.25 in 10.0 mi NNE 12.7 mph - N/A   Clear
10:56 AM 54.0 °F - 30.0 °F 40% 30.25 in 10.0 mi NNW 12.7 mph - N/A   Clear
11:56 AM 57.0 °F - 32.0 °F 39% 30.23 in 10.0 mi NNW 8.1 mph - N/A   Clear
12:56 PM 57.9 °F - 30.0 °F 35% 30.22 in 10.0 mi NNW 8.1 mph - N/A   Clear
1:56 PM 59.0 °F - 30.9 °F 35% 30.21 in 10.0 mi NW 5.8 mph - N/A   Clear
2:56 PM 60.1 °F - 33.1 °F 36% 30.20 in 10.0 mi NW 5.8 mph - N/A   Clear
3:56 PM 59.0 °F - 35.1 °F 41% 30.21 in 10.0 mi NNW 4.6 mph - N/A   Clear
4:56 PM 55.0 °F - 39.9 °F 57% 30.22 in 10.0 mi Calm Calm - N/A   Clear
5:56 PM 46.9 °F - 39.9 °F 77% 30.24 in 10.0 mi Calm Calm - N/A   Clear
6:56 PM 44.1 °F - 39.9 °F 85% 30.25 in 10.0 mi Calm Calm - N/A   Clear
7:56 PM 42.1 °F - 39.0 °F 89% 30.25 in 10.0 mi Calm Calm - N/A   Clear
8:56 PM 42.1 °F - 39.0 °F 89% 30.25 in 10.0 mi Calm Calm - N/A   Clear
9:56 PM 39.9 °F - 37.9 °F 93% 30.27 in 10.0 mi Calm Calm - N/A   Clear
10:56 PM 41.0 °F - 37.9 °F 89% 30.28 in 10.0 mi Calm Calm - N/A   Clear
11:56 PM 39.0 °F - 37.0 °F 93% 30.28 in 7.0 mi Calm Calm - N/A   Clear